DW4559 Weather Reports


time (UTC)temp
F
wind
direction
speed
knots
gust
knots
rain 1hr
in
rain 24hr
in
rain mn
in
humidity
%
barometer
mb
20260504140904 65 303 1.7 4.3 0.00 0.00 0.00 46 1007.9
20260504140404 64 324 1.7 2.6 0.00 0.00 0.00 45 1007.8
20260504130405 62 303 1.7 2.6 0.00 0.00 0.00 48 1008.5
20260504110404 50 309 0.9 2.6 0.00 0.00 0.00 62 1008.7
20260504081905 41 350 0.0 0.9 0.00 0.00 0.00 78 1007.8
20260504081404 41 38 0.0 0.0 0.00 0.00 0.00 78 1007.8
20260504070405 41 10 0.0 0.9 0.00 0.00 0.00 79 1007.2
20260504050404 39 359 0.0 0.0 0.00 0.00 0.00 79 1007.1
20260504045904 39 359 0.0 0.0 0.00 0.00 0.00 78 1007.1
20260504045404 40 359 0.0 0.0 0.00 0.00 0.00 77 1007.0
20260504044905 40 359 0.0 0.0 0.00 0.00 0.00 76 1007.0
20260504044405 40 359 0.0 0.0 0.00 0.00 0.00 76 1007.0
20260504043405 40 359 0.0 0.0 0.00 0.00 0.00 76 1007.0
20260504042405 40 341 0.0 0.0 0.00 0.00 0.00 74 1007.0
20260504041905 40 341 0.0 0.0 0.00 0.00 0.00 75 1007.0
20260504041405 40 341 0.0 0.0 0.00 0.00 0.00 76 1007.0
20260504040404 41 341 0.0 0.0 0.00 0.00 0.00 74 1007.0
20260504035904 41 341 0.0 0.9 0.00 0.00 0.00 72 1007.0
20260504035405 41 352 0.0 0.0 0.00 0.00 0.00 74 1006.9
20260504034904 40 352 0.0 0.0 0.00 0.00 0.00 74 1006.9
20260504034405 41 352 0.0 0.0 0.00 0.00 0.00 72 1006.8
20260504033904 41 333 0.0 0.0 0.00 0.00 0.00 72 1006.8
20260504033405 41 333 0.0 0.0 0.00 0.00 0.00 73 1006.8
20260504032904 41 333 0.0 0.0 0.00 0.00 0.00 72 1006.8
20260504032404 41 333 0.0 0.0 0.00 0.00 0.00 72 1006.8
20260504031905 42 333 0.0 0.0 0.00 0.00 0.00 71 1006.8
20260504031404 42 333 0.0 0.0 0.00 0.00 0.00 70 1006.8
20260504030904 42 333 0.0 0.0 0.00 0.00 0.00 71 1006.8
20260504030404 42 333 0.0 0.0 0.00 0.00 0.00 69 1006.8
20260504025904 42 333 0.0 0.0 0.00 0.00 0.00 68 1006.8
20260504025404 42 333 0.0 0.0 0.00 0.00 0.00 69 1006.8
20260504024904 43 333 0.0 0.0 0.00 0.00 0.00 68 1006.8
20260504024404 43 333 0.0 0.0 0.00 0.00 0.00 68 1006.8
20260504023904 43 333 0.0 0.0 0.00 0.00 0.00 70 1006.8
20260504023404 43 333 0.0 0.0 0.00 0.00 0.00 68 1006.7
20260504022904 44 333 0.0 0.0 0.00 0.00 0.00 68 1006.7
20260504022404 44 333 0.0 0.0 0.00 0.00 0.00 67 1006.7
20260504021904 44 333 0.0 0.0 0.00 0.00 0.00 66 1006.7
20260504021404 45 333 0.0 0.0 0.00 0.00 0.00 65 1006.7
20260504020404 46 333 0.0 0.0 0.00 0.00 0.00 63 1006.7
20260504015904 46 333 0.0 0.0 0.00 0.00 0.00 62 1006.7
20260504015404 46 333 0.0 0.0 0.00 0.00 0.00 63 1006.7
20260504014905 47 333 0.0 0.0 0.00 0.00 0.00 61 1006.7
20260504013904 48 354 0.0 0.0 0.00 0.00 0.00 59 1006.6
20260504013404 48 350 0.0 0.9 0.00 0.00 0.00 59 1006.5
20260504012904 49 320 0.0 0.0 0.00 0.00 0.00 57 1006.4
20260504012404 49 320 0.0 0.9 0.00 0.00 0.00 55 1006.4
20260504011905 50 327 0.0 0.9 0.00 0.00 0.00 54 1006.4
20260504011404 50 326 0.9 0.9 0.00 0.00 0.00 53 1006.4
20260504010904 50 318 0.0 0.9 0.00 0.00 0.00 52 1006.3
20260504010404 51 328 0.0 0.9 0.00 0.00 0.00 52 1006.2
20260504005404 51 319 0.0 0.9 0.00 0.00 0.00 53 1006.0
20260504004904 51 306 0.0 0.0 0.00 0.00 0.00 53 1006.0
20260504004404 51 335 0.0 0.0 0.00 0.00 0.00 53 1005.9
20260504003905 51 335 0.0 0.9 0.00 0.00 0.00 53 1005.9
20260504002904 51 333 0.0 0.0 0.00 0.00 0.00 52 1005.7
20260504002404 52 333 0.0 0.9 0.00 0.00 0.00 51 1005.6
20260504001404 52 317 0.0 1.7 0.00 0.00 0.00 50 1005.5
20260504000905 53 331 0.0 1.7 0.00 0.00 0.00 48 1005.4
20260504000404 53 340 0.9 1.7 0.00 0.00 0.00 48 1005.3
20260503235904 53 347 0.0 1.7 0.00 0.00 0.00 47 1005.3
20260503234904 54 321 0.9 2.6 0.00 0.00 0.00 44 1005.1
20260503234404 55 314 0.9 1.7 0.00 0.00 0.00 44 1005.1
20260503233904 55 326 0.9 2.6 0.00 0.00 0.00 43 1005.1
20260503233404 55 331 1.7 2.6 0.00 0.00 0.00 42 1005.0
20260503231905 56 332 1.7 5.2 0.00 0.00 0.00 41 1004.8
20260503231405 57 327 1.7 4.3 0.00 0.00 0.00 41 1004.8
20260503230904 58 307 1.7 7.0 0.00 0.00 0.00 41 1004.8
20260503230404 59 340 1.7 4.3 0.00 0.00 0.00 40 1004.8
20260503225905 58 331 0.0 1.7 0.00 0.00 0.00 40 1004.7
20260503225404 58 343 0.9 1.7 0.00 0.00 0.00 39 1004.7
20260503224905 58 337 2.6 7.0 0.00 0.00 0.00 38 1004.7
20260503223405 59 0 0.9 2.6 0.00 0.00 0.00 40 1004.6
20260503222904 59 319 0.9 4.3 0.00 0.00 0.00 39 1004.6
20260503222404 59 333 1.7 6.1 0.00 0.00 0.00 38 1004.5
20260503221904 60 311 1.7 5.2 0.00 0.00 0.00 38 1004.5
20260503220904 59 330 1.7 5.2 0.00 0.00 0.00 38 1004.5
20260503220405 58 313 2.6 6.1 0.00 0.00 0.00 38 1004.5
20260503215904 58 331 2.6 6.1 0.00 0.00 0.00 37 1004.5
20260503215404 58 317 3.5 7.0 0.00 0.00 0.00 38 1004.4
20260503214904 58 351 1.7 4.3 0.00 0.00 0.00 38 1004.5
20260503214404 57 347 2.6 6.1 0.00 0.00 0.00 39 1004.5
20260503213404 57 337 2.6 6.1 0.00 0.00 0.00 39 1004.4
20260503212905 57 321 3.5 7.0 0.00 0.00 0.00 40 1004.3
20260503212404 57 327 1.7 6.1 0.00 0.00 0.00 41 1004.2
20260503211904 57 321 3.5 10.4 0.00 0.00 0.00 40 1004.3
20260503211404 57 316 2.6 7.0 0.00 0.00 0.00 41 1004.2
20260503210404 57 336 1.7 5.2 0.00 0.00 0.00 41 1004.2
20260503205904 57 347 2.6 7.0 0.00 0.00 0.00 40 1004.1
20260503205404 56 332 2.6 7.0 0.00 0.00 0.00 40 1004.1
20260503204904 56 315 2.6 8.7 0.00 0.00 0.00 40 1004.2
20260503204404 56 326 2.6 8.7 0.00 0.00 0.00 41 1004.3
20260503203904 56 316 4.3 7.8 0.00 0.00 0.00 41 1004.2
20260503203404 56 344 3.5 10.4 0.00 0.00 0.00 41 1004.3
20260503202904 56 319 2.6 7.0 0.00 0.00 0.00 41 1004.2
20260503202405 56 325 4.3 10.4 0.00 0.00 0.00 41 1004.2
20260503201404 56 313 4.3 7.8 0.00 0.00 0.00 41 1004.3
20260503200905 56 303 4.3 7.8 0.00 0.00 0.00 41 1004.4
20260503200404 56 335 3.5 7.8 0.00 0.00 0.00 42 1004.4
20260503195404 56 309 3.5 7.0 0.00 0.00 0.00 45 1004.4
20260503194905 55 351 3.5 8.7 0.00 0.00 0.00 44 1004.4
20260503194405 55 330 4.3 10.4 0.00 0.00 0.00 43 1004.4
20260503193904 56 318 5.2 11.3 0.00 0.00 0.00 42 1004.4
20260503193405 56 334 4.3 8.7 0.00 0.00 0.00 43 1004.4
20260503192904 56 343 4.3 7.8 0.00 0.00 0.00 43 1004.5
20260503191405 57 328 4.3 7.8 0.00 0.00 0.00 42 1004.6
20260503190904 57 333 2.6 6.1 0.00 0.00 0.00 42 1004.6
20260503190404 56 322 4.3 7.8 0.00 0.00 0.00 42 1004.5
20260503185904 56 334 4.3 7.8 0.00 0.00 0.00 42 1004.5
20260503185404 56 315 4.3 10.4 0.00 0.00 0.00 43 1004.4
20260503184904 56 322 4.3 7.8 0.00 0.00 0.00 43 1004.5
20260503183904 56 334 5.2 11.3 0.00 0.00 0.00 42 1004.5
20260503183405 56 352 3.5 7.0 0.00 0.00 0.00 40 1004.4
20260503182905 56 338 4.3 7.8 0.00 0.00 0.00 40 1004.4
20260503182404 56 331 4.3 7.8 0.00 0.00 0.00 41 1004.4
20260503181404 55 323 4.3 7.0 0.00 0.00 0.00 43 1004.4
20260503180904 56 336 4.3 7.0 0.00 0.00 0.00 42 1004.5
20260503180404 56 329 2.6 7.8 0.00 0.00 0.00 42 1004.5
20260503175904 56 325 1.7 5.2 0.00 0.00 0.00 44 1004.4
20260503174904 55 272 3.5 7.0 0.00 0.00 0.00 44 1004.5
20260503174403 54 329 1.7 6.1 0.00 0.00 0.00 45 1004.7
20260503173904 54 321 3.5 8.7 0.00 0.00 0.00 44 1004.6
20260503173404 54 309 2.6 7.0 0.00 0.00 0.00 44 1004.6
20260503172904 53 341 3.5 7.8 0.00 0.00 0.00 46 1004.6
20260503172404 54 295 4.3 7.8 0.00 0.00 0.00 45 1004.6
20260503171904 54 308 4.3 7.0 0.00 0.00 0.00 46 1004.7
20260503171404 54 357 2.6 7.8 0.00 0.00 0.00 47 1004.7
20260503170904 54 324 3.5 12.2 0.00 0.00 0.00 47 1004.8
20260503170404 53 331 3.5 7.0 0.00 0.00 0.00 48 1004.8
20260503150904 53 338 2.6 7.0 0.00 0.00 0.00 52 1004.8
20260503150404 52 331 3.5 7.0 0.00 0.00 0.00 53 1004.9